owner,sensor,date,latitude,longitude,vertical_datum,sea_water_practical_salinity,qcFlag 
ENP,ioos.station.NOAA.NDBC:GBTF1:1,2019-11-01T00:00:00Z,25.1670,-80.8010,1.5,35.01,11111222 
ENP,ioos.station.NOAA.NDBC:GBTF1:1,2019-11-01T01:00:00Z,25.1670,-80.8010,1.5,34.96,11111222 
ENP,ioos.station.NOAA.NDBC:GBTF1:1,2019-11-01T02:00:00Z,25.1670,-80.8010,1.5,34.91,11111222 
ENP,ioos.station.NOAA.NDBC:GBTF1:1,2019-11-01T04:00:00Z,25.1670,-80.8010,1.5,35.03,11111222 
ENP,ioos.station.NOAA.NDBC:GBTF1:1,2019-11-01T05:00:00Z,25.1670,-80.8010,1.5,34.99,11111222 
ENP,ioos.station.NOAA.NDBC:GBTF1:1,2019-11-01T06:00:00Z,25.1670,-80.8010,1.5,35.12,11111222 
ENP,ioos.station.NOAA.NDBC:GBTF1:1,2019-11-01T07:00:00Z,25.1670,-80.8010,1.5,35.17,11111222 
ENP,ioos.station.NOAA.NDBC:GBTF1:1,2019-11-01T08:00:00Z,25.1670,-80.8010,1.5,35.2,11111222 
ENP,ioos.station.NOAA.NDBC:GBTF1:1,2019-11-01T09:00:00Z,25.1670,-80.8010,1.5,35.17,11111222 
ENP,ioos.station.NOAA.NDBC:GBTF1:1,2019-11-01T10:00:00Z,25.1670,-80.8010,1.5,35.91,11111222 
ENP,ioos.station.NOAA.NDBC:GBTF1:1,2019-11-01T11:00:00Z,25.1670,-80.8010,1.5,36.08,11111222 
ENP,ioos.station.NOAA.NDBC:GBTF1:1,2019-11-01T12:00:00Z,25.1670,-80.8010,1.5,36.02,11111222 
ENP,ioos.station.NOAA.NDBC:GBTF1:1,2019-11-01T13:00:00Z,25.1670,-80.8010,1.5,36.14,11111222 
ENP,ioos.station.NOAA.NDBC:GBTF1:1,2019-11-01T15:00:00Z,25.1670,-80.8010,1.5,36.34,11111222 
ENP,ioos.station.NOAA.NDBC:GBTF1:1,2019-11-01T17:00:00Z,25.1670,-80.8010,1.5,36.02,11111222 
ENP,ioos.station.NOAA.NDBC:GBTF1:1,2019-11-01T18:00:00Z,25.1670,-80.8010,1.5,35.85,11111222 
ENP,ioos.station.NOAA.NDBC:GBTF1:1,2019-11-01T19:00:00Z,25.1670,-80.8010,1.5,35.65,11111222 
ENP,ioos.station.NOAA.NDBC:GBTF1:1,2019-11-01T20:00:00Z,25.1670,-80.8010,1.5,35.43,11111222 
ENP,ioos.station.NOAA.NDBC:GBTF1:1,2019-11-01T21:00:00Z,25.1670,-80.8010,1.5,35.31,11111222 
ENP,ioos.station.NOAA.NDBC:GBTF1:1,2019-11-01T23:00:00Z,25.1670,-80.8010,1.5,35.25,11111222 
ENP,ioos.station.NOAA.NDBC:GBTF1:1,2019-11-02T00:00:00Z,25.1670,-80.8010,1.5,35.25,11111222 
ENP,ioos.station.NOAA.NDBC:GBTF1:1,2019-11-02T02:00:00Z,25.1670,-80.8010,1.5,35.45,11111222 
ENP,ioos.station.NOAA.NDBC:GBTF1:1,2019-11-02T04:00:00Z,25.1670,-80.8010,1.5,35.03,11111222 
ENP,ioos.station.NOAA.NDBC:GBTF1:1,2019-11-02T05:00:00Z,25.1670,-80.8010,1.5,34.76,11111222 
ENP,ioos.station.NOAA.NDBC:GBTF1:1,2019-11-02T06:00:00Z,25.1670,-80.8010,1.5,34.78,11111222 
ENP,ioos.station.NOAA.NDBC:GBTF1:1,2019-11-02T07:00:00Z,25.1670,-80.8010,1.5,34.83,11111222 
ENP,ioos.station.NOAA.NDBC:GBTF1:1,2019-11-02T08:00:00Z,25.1670,-80.8010,1.5,34.82,11111222 
ENP,ioos.station.NOAA.NDBC:GBTF1:1,2019-11-02T09:00:00Z,25.1670,-80.8010,1.5,34.66,11111222 
ENP,ioos.station.NOAA.NDBC:GBTF1:1,2019-11-02T10:00:00Z,25.1670,-80.8010,1.5,34.49,11111222 
ENP,ioos.station.NOAA.NDBC:GBTF1:1,2019-11-02T11:00:00Z,25.1670,-80.8010,1.5,35.06,11111222 
ENP,ioos.station.NOAA.NDBC:GBTF1:1,2019-11-02T13:00:00Z,25.1670,-80.8010,1.5,35.14,11111222 
ENP,ioos.station.NOAA.NDBC:GBTF1:1,2019-11-02T14:00:00Z,25.1670,-80.8010,1.5,35.08,11111222 
ENP,ioos.station.NOAA.NDBC:GBTF1:1,2019-11-02T15:00:00Z,25.1670,-80.8010,1.5,35.0,11111222 
ENP,ioos.station.NOAA.NDBC:GBTF1:1,2019-11-02T16:00:00Z,25.1670,-80.8010,1.5,34.8,11111222 
ENP,ioos.station.NOAA.NDBC:GBTF1:1,2019-11-02T17:00:00Z,25.1670,-80.8010,1.5,34.67,11111222 
ENP,ioos.station.NOAA.NDBC:GBTF1:1,2019-11-02T18:00:00Z,25.1670,-80.8010,1.5,34.71,11111222 
ENP,ioos.station.NOAA.NDBC:GBTF1:1,2019-11-02T19:00:00Z,25.1670,-80.8010,1.5,34.71,11111222 
ENP,ioos.station.NOAA.NDBC:GBTF1:1,2019-11-02T20:00:00Z,25.1670,-80.8010,1.5,34.54,11111222 
ENP,ioos.station.NOAA.NDBC:GBTF1:1,2019-11-02T21:00:00Z,25.1670,-80.8010,1.5,34.49,11111222 
ENP,ioos.station.NOAA.NDBC:GBTF1:1,2019-11-02T22:00:00Z,25.1670,-80.8010,1.5,34.51,11111222 
ENP,ioos.station.NOAA.NDBC:GBTF1:1,2019-11-02T23:00:00Z,25.1670,-80.8010,1.5,34.55,11111222 
ENP,ioos.station.NOAA.NDBC:GBTF1:1,2019-11-03T00:00:00Z,25.1670,-80.8010,1.5,34.56,11111222 
ENP,ioos.station.NOAA.NDBC:GBTF1:1,2019-11-03T03:00:00Z,25.1670,-80.8010,1.5,34.62,11111222 
ENP,ioos.station.NOAA.NDBC:GBTF1:1,2019-11-03T05:00:00Z,25.1670,-80.8010,1.5,34.56,11111222 
ENP,ioos.station.NOAA.NDBC:GBTF1:1,2019-11-03T06:00:00Z,25.1670,-80.8010,1.5,34.56,11111222 
ENP,ioos.station.NOAA.NDBC:GBTF1:1,2019-11-03T07:00:00Z,25.1670,-80.8010,1.5,34.52,11111222 
ENP,ioos.station.NOAA.NDBC:GBTF1:1,2019-11-03T08:00:00Z,25.1670,-80.8010,1.5,34.47,11111222 
ENP,ioos.station.NOAA.NDBC:GBTF1:1,2019-11-03T09:00:00Z,25.1670,-80.8010,1.5,34.36,11111222 
ENP,ioos.station.NOAA.NDBC:GBTF1:1,2019-11-03T10:00:00Z,25.1670,-80.8010,1.5,34.33,11111222 
ENP,ioos.station.NOAA.NDBC:GBTF1:1,2019-11-03T11:00:00Z,25.1670,-80.8010,1.5,34.72,11111222 
ENP,ioos.station.NOAA.NDBC:GBTF1:1,2019-11-03T12:00:00Z,25.1670,-80.8010,1.5,34.97,11111222 
ENP,ioos.station.NOAA.NDBC:GBTF1:1,2019-11-03T13:00:00Z,25.1670,-80.8010,1.5,35.0,11111222 
ENP,ioos.station.NOAA.NDBC:GBTF1:1,2019-11-03T14:00:00Z,25.1670,-80.8010,1.5,34.86,11111222 
ENP,ioos.station.NOAA.NDBC:GBTF1:1,2019-11-03T15:00:00Z,25.1670,-80.8010,1.5,34.58,11111222 
ENP,ioos.station.NOAA.NDBC:GBTF1:1,2019-11-03T16:00:00Z,25.1670,-80.8010,1.5,34.47,11111222 
ENP,ioos.station.NOAA.NDBC:GBTF1:1,2019-11-03T17:00:00Z,25.1670,-80.8010,1.5,34.47,11111222 
ENP,ioos.station.NOAA.NDBC:GBTF1:1,2019-11-03T18:00:00Z,25.1670,-80.8010,1.5,34.5,11111222 
ENP,ioos.station.NOAA.NDBC:GBTF1:1,2019-11-03T19:00:00Z,25.1670,-80.8010,1.5,34.55,11111222 
ENP,ioos.station.NOAA.NDBC:GBTF1:1,2019-11-03T20:00:00Z,25.1670,-80.8010,1.5,34.5,11111222 
ENP,ioos.station.NOAA.NDBC:GBTF1:1,2019-11-03T21:00:00Z,25.1670,-80.8010,1.5,33.68,11111222 
ENP,ioos.station.NOAA.NDBC:GBTF1:1,2019-11-03T22:00:00Z,25.1670,-80.8010,1.5,33.49,11111222 
ENP,ioos.station.NOAA.NDBC:GBTF1:1,2019-11-03T23:00:00Z,25.1670,-80.8010,1.5,33.07,11111222 
ENP,ioos.station.NOAA.NDBC:GBTF1:1,2019-11-04T00:00:00Z,25.1670,-80.8010,1.5,32.99,11111222 
ENP,ioos.station.NOAA.NDBC:GBTF1:1,2019-11-04T02:00:00Z,25.1670,-80.8010,1.5,32.98,11111222 
ENP,ioos.station.NOAA.NDBC:GBTF1:1,2019-11-04T03:00:00Z,25.1670,-80.8010,1.5,33.2,11111222 
ENP,ioos.station.NOAA.NDBC:GBTF1:1,2019-11-04T05:00:00Z,25.1670,-80.8010,1.5,33.77,11111222 
ENP,ioos.station.NOAA.NDBC:GBTF1:1,2019-11-04T16:00:00Z,25.1670,-80.8010,1.5,34.37,11111222 
ENP,ioos.station.NOAA.NDBC:GBTF1:1,2019-11-04T17:00:00Z,25.1670,-80.8010,1.5,34.45,11111222 
ENP,ioos.station.NOAA.NDBC:GBTF1:1,2019-11-04T18:00:00Z,25.1670,-80.8010,1.5,34.3,11111222 
ENP,ioos.station.NOAA.NDBC:GBTF1:1,2019-11-04T19:00:00Z,25.1670,-80.8010,1.5,34.5,11111222 
ENP,ioos.station.NOAA.NDBC:GBTF1:1,2019-11-04T20:00:00Z,25.1670,-80.8010,1.5,34.87,11111222 
ENP,ioos.station.NOAA.NDBC:GBTF1:1,2019-11-04T21:00:00Z,25.1670,-80.8010,1.5,35.12,11111222 
ENP,ioos.station.NOAA.NDBC:GBTF1:1,2019-11-04T22:00:00Z,25.1670,-80.8010,1.5,35.13,11111222 
ENP,ioos.station.NOAA.NDBC:GBTF1:1,2019-11-04T23:00:00Z,25.1670,-80.8010,1.5,35.2,11111222 
ENP,ioos.station.NOAA.NDBC:GBTF1:1,2019-11-05T00:00:00Z,25.1670,-80.8010,1.5,35.42,11111222 
ENP,ioos.station.NOAA.NDBC:GBTF1:1,2019-11-05T01:00:00Z,25.1670,-80.8010,1.5,35.54,11111222 
ENP,ioos.station.NOAA.NDBC:GBTF1:1,2019-11-05T03:00:00Z,25.1670,-80.8010,1.5,35.52,11111222 
ENP,ioos.station.NOAA.NDBC:GBTF1:1,2019-11-05T05:00:00Z,25.1670,-80.8010,1.5,35.25,11111222 
ENP,ioos.station.NOAA.NDBC:GBTF1:1,2019-11-05T06:00:00Z,25.1670,-80.8010,1.5,35.22,11111222 
ENP,ioos.station.NOAA.NDBC:GBTF1:1,2019-11-05T07:00:00Z,25.1670,-80.8010,1.5,35.08,11111222 
ENP,ioos.station.NOAA.NDBC:GBTF1:1,2019-11-05T08:00:00Z,25.1670,-80.8010,1.5,35.25,11111222 
ENP,ioos.station.NOAA.NDBC:GBTF1:1,2019-11-05T09:00:00Z,25.1670,-80.8010,1.5,35.17,11111222 
ENP,ioos.station.NOAA.NDBC:GBTF1:1,2019-11-05T10:00:00Z,25.1670,-80.8010,1.5,35.07,11111222 
ENP,ioos.station.NOAA.NDBC:GBTF1:1,2019-11-05T11:00:00Z,25.1670,-80.8010,1.5,34.99,11111222 
ENP,ioos.station.NOAA.NDBC:GBTF1:1,2019-11-05T12:00:00Z,25.1670,-80.8010,1.5,35.1,11111222 
ENP,ioos.station.NOAA.NDBC:GBTF1:1,2019-11-05T13:00:00Z,25.1670,-80.8010,1.5,35.09,11111222 
ENP,ioos.station.NOAA.NDBC:GBTF1:1,2019-11-05T14:00:00Z,25.1670,-80.8010,1.5,34.86,11111222 
ENP,ioos.station.NOAA.NDBC:GBTF1:1,2019-11-05T15:00:00Z,25.1670,-80.8010,1.5,34.78,11111222 
ENP,ioos.station.NOAA.NDBC:GBTF1:1,2019-11-05T16:00:00Z,25.1670,-80.8010,1.5,34.66,11111222 
ENP,ioos.station.NOAA.NDBC:GBTF1:1,2019-11-05T17:00:00Z,25.1670,-80.8010,1.5,34.61,11111222 
ENP,ioos.station.NOAA.NDBC:GBTF1:1,2019-11-05T18:00:00Z,25.1670,-80.8010,1.5,34.55,11111222 
ENP,ioos.station.NOAA.NDBC:GBTF1:1,2019-11-05T19:00:00Z,25.1670,-80.8010,1.5,34.44,11111222 
ENP,ioos.station.NOAA.NDBC:GBTF1:1,2019-11-05T20:00:00Z,25.1670,-80.8010,1.5,34.36,11111222 
ENP,ioos.station.NOAA.NDBC:GBTF1:1,2019-11-05T21:00:00Z,25.1670,-80.8010,1.5,34.22,11111222 
ENP,ioos.station.NOAA.NDBC:GBTF1:1,2019-11-05T22:00:00Z,25.1670,-80.8010,1.5,34.11,11111222 
ENP,ioos.station.NOAA.NDBC:GBTF1:1,2019-11-05T23:00:00Z,25.1670,-80.8010,1.5,34.15,11111222 
ENP,ioos.station.NOAA.NDBC:GBTF1:1,2019-11-06T00:00:00Z,25.1670,-80.8010,1.5,34.38,11111222 
ENP,ioos.station.NOAA.NDBC:GBTF1:1,2019-11-06T01:00:00Z,25.1670,-80.8010,1.5,34.99,11111222 
ENP,ioos.station.NOAA.NDBC:GBTF1:1,2019-11-06T02:00:00Z,25.1670,-80.8010,1.5,35.03,11111222 
ENP,ioos.station.NOAA.NDBC:GBTF1:1,2019-11-06T03:00:00Z,25.1670,-80.8010,1.5,35.03,11111222 
ENP,ioos.station.NOAA.NDBC:GBTF1:1,2019-11-06T05:00:00Z,25.1670,-80.8010,1.5,35.09,11111222 
ENP,ioos.station.NOAA.NDBC:GBTF1:1,2019-11-06T06:00:00Z,25.1670,-80.8010,1.5,35.12,11111222 
ENP,ioos.station.NOAA.NDBC:GBTF1:1,2019-11-06T07:00:00Z,25.1670,-80.8010,1.5,35.65,11111222 
ENP,ioos.station.NOAA.NDBC:GBTF1:1,2019-11-06T08:00:00Z,25.1670,-80.8010,1.5,36.06,11111222 
ENP,ioos.station.NOAA.NDBC:GBTF1:1,2019-11-06T09:00:00Z,25.1670,-80.8010,1.5,36.32,11111222 
ENP,ioos.station.NOAA.NDBC:GBTF1:1,2019-11-06T10:00:00Z,25.1670,-80.8010,1.5,36.57,11111222 
ENP,ioos.station.NOAA.NDBC:GBTF1:1,2019-11-06T11:00:00Z,25.1670,-80.8010,1.5,36.67,11111222 
ENP,ioos.station.NOAA.NDBC:GBTF1:1,2019-11-06T12:00:00Z,25.1670,-80.8010,1.5,37.04,11111222 
ENP,ioos.station.NOAA.NDBC:GBTF1:1,2019-11-06T13:00:00Z,25.1670,-80.8010,1.5,37.15,11111222 
ENP,ioos.station.NOAA.NDBC:GBTF1:1,2019-11-06T14:00:00Z,25.1670,-80.8010,1.5,37.28,11111222 
ENP,ioos.station.NOAA.NDBC:GBTF1:1,2019-11-06T15:00:00Z,25.1670,-80.8010,1.5,37.17,11111222 
ENP,ioos.station.NOAA.NDBC:GBTF1:1,2019-11-06T16:00:00Z,25.1670,-80.8010,1.5,36.76,11111222 
ENP,ioos.station.NOAA.NDBC:GBTF1:1,2019-11-06T17:00:00Z,25.1670,-80.8010,1.5,36.39,11111222 
ENP,ioos.station.NOAA.NDBC:GBTF1:1,2019-11-06T18:00:00Z,25.1670,-80.8010,1.5,36.02,11111222 
ENP,ioos.station.NOAA.NDBC:GBTF1:1,2019-11-06T19:00:00Z,25.1670,-80.8010,1.5,34.95,11111222 
ENP,ioos.station.NOAA.NDBC:GBTF1:1,2019-11-06T20:00:00Z,25.1670,-80.8010,1.5,34.11,11111222 
ENP,ioos.station.NOAA.NDBC:GBTF1:1,2019-11-06T21:00:00Z,25.1670,-80.8010,1.5,33.83,11111222 
ENP,ioos.station.NOAA.NDBC:GBTF1:1,2019-11-06T22:00:00Z,25.1670,-80.8010,1.5,33.78,11111222 
ENP,ioos.station.NOAA.NDBC:GBTF1:1,2019-11-06T23:00:00Z,25.1670,-80.8010,1.5,35.69,11111222 
ENP,ioos.station.NOAA.NDBC:GBTF1:1,2019-11-07T00:00:00Z,25.1670,-80.8010,1.5,36.14,11111222 
ENP,ioos.station.NOAA.NDBC:GBTF1:1,2019-11-07T01:00:00Z,25.1670,-80.8010,1.5,36.08,11111222 
ENP,ioos.station.NOAA.NDBC:GBTF1:1,2019-11-07T02:00:00Z,25.1670,-80.8010,1.5,35.98,11111222 
ENP,ioos.station.NOAA.NDBC:GBTF1:1,2019-11-07T03:00:00Z,25.1670,-80.8010,1.5,35.76,11111222 
ENP,ioos.station.NOAA.NDBC:GBTF1:1,2019-11-07T05:00:00Z,25.1670,-80.8010,1.5,35.56,11111222 
ENP,ioos.station.NOAA.NDBC:GBTF1:1,2019-11-07T06:00:00Z,25.1670,-80.8010,1.5,36.79,11111222 
ENP,ioos.station.NOAA.NDBC:GBTF1:1,2019-11-07T07:00:00Z,25.1670,-80.8010,1.5,36.96,11111222 
ENP,ioos.station.NOAA.NDBC:GBTF1:1,2019-11-07T08:00:00Z,25.1670,-80.8010,1.5,37.47,11111222 
ENP,ioos.station.NOAA.NDBC:GBTF1:1,2019-11-07T09:00:00Z,25.1670,-80.8010,1.5,37.74,11111222 
ENP,ioos.station.NOAA.NDBC:GBTF1:1,2019-11-07T10:00:00Z,25.1670,-80.8010,1.5,37.69,11111222 
ENP,ioos.station.NOAA.NDBC:GBTF1:1,2019-11-07T11:00:00Z,25.1670,-80.8010,1.5,37.68,11111222 
ENP,ioos.station.NOAA.NDBC:GBTF1:1,2019-11-07T12:00:00Z,25.1670,-80.8010,1.5,38.05,11111222 
ENP,ioos.station.NOAA.NDBC:GBTF1:1,2019-11-07T13:00:00Z,25.1670,-80.8010,1.5,38.47,11111222 
ENP,ioos.station.NOAA.NDBC:GBTF1:1,2019-11-07T14:00:00Z,25.1670,-80.8010,1.5,38.59,11111222 
ENP,ioos.station.NOAA.NDBC:GBTF1:1,2019-11-07T15:00:00Z,25.1670,-80.8010,1.5,37.97,11111222 
ENP,ioos.station.NOAA.NDBC:GBTF1:1,2019-11-07T16:00:00Z,25.1670,-80.8010,1.5,36.88,11111222 
ENP,ioos.station.NOAA.NDBC:GBTF1:1,2019-11-07T17:00:00Z,25.1670,-80.8010,1.5,37.55,11111222 
ENP,ioos.station.NOAA.NDBC:GBTF1:1,2019-11-07T18:00:00Z,25.1670,-80.8010,1.5,36.6,11111222 
ENP,ioos.station.NOAA.NDBC:GBTF1:1,2019-11-07T19:00:00Z,25.1670,-80.8010,1.5,36.69,11111222 
ENP,ioos.station.NOAA.NDBC:GBTF1:1,2019-11-07T20:00:00Z,25.1670,-80.8010,1.5,35.84,11111222 
ENP,ioos.station.NOAA.NDBC:GBTF1:1,2019-11-07T21:00:00Z,25.1670,-80.8010,1.5,35.85,11111222 
ENP,ioos.station.NOAA.NDBC:GBTF1:1,2019-11-07T22:00:00Z,25.1670,-80.8010,1.5,35.92,11111222 
ENP,ioos.station.NOAA.NDBC:GBTF1:1,2019-11-07T23:00:00Z,25.1670,-80.8010,1.5,35.96,11111222 
ENP,ioos.station.NOAA.NDBC:GBTF1:1,2019-11-08T00:00:00Z,25.1670,-80.8010,1.5,35.93,11111222 
ENP,ioos.station.NOAA.NDBC:GBTF1:1,2019-11-08T01:00:00Z,25.1670,-80.8010,1.5,37.19,11111222 
ENP,ioos.station.NOAA.NDBC:GBTF1:1,2019-11-08T03:00:00Z,25.1670,-80.8010,1.5,37.3,11111222 
ENP,ioos.station.NOAA.NDBC:GBTF1:1,2019-11-08T05:00:00Z,25.1670,-80.8010,1.5,38.0,11111222 
ENP,ioos.station.NOAA.NDBC:GBTF1:1,2019-11-08T07:00:00Z,25.1670,-80.8010,1.5,38.12,11111222 
ENP,ioos.station.NOAA.NDBC:GBTF1:1,2019-11-08T08:00:00Z,25.1670,-80.8010,1.5,38.03,11111222 
ENP,ioos.station.NOAA.NDBC:GBTF1:1,2019-11-08T09:00:00Z,25.1670,-80.8010,1.5,38.39,11111222 
ENP,ioos.station.NOAA.NDBC:GBTF1:1,2019-11-08T10:00:00Z,25.1670,-80.8010,1.5,38.65,11111222 
ENP,ioos.station.NOAA.NDBC:GBTF1:1,2019-11-08T11:00:00Z,25.1670,-80.8010,1.5,38.65,11111222 
ENP,ioos.station.NOAA.NDBC:GBTF1:1,2019-11-08T12:00:00Z,25.1670,-80.8010,1.5,38.68,11111222 
ENP,ioos.station.NOAA.NDBC:GBTF1:1,2019-11-08T14:00:00Z,25.1670,-80.8010,1.5,38.81,11111222 
ENP,ioos.station.NOAA.NDBC:GBTF1:1,2019-11-08T15:00:00Z,25.1670,-80.8010,1.5,38.72,11111222 
ENP,ioos.station.NOAA.NDBC:GBTF1:1,2019-11-08T17:00:00Z,25.1670,-80.8010,1.5,38.47,11111222 
ENP,ioos.station.NOAA.NDBC:GBTF1:1,2019-11-08T18:00:00Z,25.1670,-80.8010,1.5,38.27,11111222 
ENP,ioos.station.NOAA.NDBC:GBTF1:1,2019-11-08T19:00:00Z,25.1670,-80.8010,1.5,38.2,11111222 
ENP,ioos.station.NOAA.NDBC:GBTF1:1,2019-11-08T20:00:00Z,25.1670,-80.8010,1.5,38.15,11111222 
ENP,ioos.station.NOAA.NDBC:GBTF1:1,2019-11-08T21:00:00Z,25.1670,-80.8010,1.5,38.1,11111222 
ENP,ioos.station.NOAA.NDBC:GBTF1:1,2019-11-08T22:00:00Z,25.1670,-80.8010,1.5,38.06,11111222 
ENP,ioos.station.NOAA.NDBC:GBTF1:1,2019-11-08T23:00:00Z,25.1670,-80.8010,1.5,37.95,11111222 
ENP,ioos.station.NOAA.NDBC:GBTF1:1,2019-11-09T00:00:00Z,25.1670,-80.8010,1.5,37.94,11111222 
ENP,ioos.station.NOAA.NDBC:GBTF1:1,2019-11-09T01:00:00Z,25.1670,-80.8010,1.5,37.94,11111222 
ENP,ioos.station.NOAA.NDBC:GBTF1:1,2019-11-09T02:00:00Z,25.1670,-80.8010,1.5,37.86,11111222 
ENP,ioos.station.NOAA.NDBC:GBTF1:1,2019-11-09T03:00:00Z,25.1670,-80.8010,1.5,37.51,11111222 
ENP,ioos.station.NOAA.NDBC:GBTF1:1,2019-11-09T05:00:00Z,25.1670,-80.8010,1.5,37.39,11111222 
ENP,ioos.station.NOAA.NDBC:GBTF1:1,2019-11-09T06:00:00Z,25.1670,-80.8010,1.5,37.34,11111222 
ENP,ioos.station.NOAA.NDBC:GBTF1:1,2019-11-09T07:00:00Z,25.1670,-80.8010,1.5,37.37,11111222 
ENP,ioos.station.NOAA.NDBC:GBTF1:1,2019-11-09T08:00:00Z,25.1670,-80.8010,1.5,37.33,11111222 
ENP,ioos.station.NOAA.NDBC:GBTF1:1,2019-11-09T09:00:00Z,25.1670,-80.8010,1.5,37.51,11111222 
ENP,ioos.station.NOAA.NDBC:GBTF1:1,2019-11-09T10:00:00Z,25.1670,-80.8010,1.5,37.62,11111222 
ENP,ioos.station.NOAA.NDBC:GBTF1:1,2019-11-09T11:00:00Z,25.1670,-80.8010,1.5,37.59,11111222 
ENP,ioos.station.NOAA.NDBC:GBTF1:1,2019-11-09T12:00:00Z,25.1670,-80.8010,1.5,36.31,11111222 
ENP,ioos.station.NOAA.NDBC:GBTF1:1,2019-11-09T13:00:00Z,25.1670,-80.8010,1.5,35.6,11111222 
ENP,ioos.station.NOAA.NDBC:GBTF1:1,2019-11-09T14:00:00Z,25.1670,-80.8010,1.5,35.51,11111222 
ENP,ioos.station.NOAA.NDBC:GBTF1:1,2019-11-09T15:00:00Z,25.1670,-80.8010,1.5,35.37,11111222 
ENP,ioos.station.NOAA.NDBC:GBTF1:1,2019-11-09T16:00:00Z,25.1670,-80.8010,1.5,35.28,11111222 
ENP,ioos.station.NOAA.NDBC:GBTF1:1,2019-11-09T17:00:00Z,25.1670,-80.8010,1.5,35.19,11111222 
ENP,ioos.station.NOAA.NDBC:GBTF1:1,2019-11-09T18:00:00Z,25.1670,-80.8010,1.5,34.42,11111222 
ENP,ioos.station.NOAA.NDBC:GBTF1:1,2019-11-09T19:00:00Z,25.1670,-80.8010,1.5,34.92,11111222 
ENP,ioos.station.NOAA.NDBC:GBTF1:1,2019-11-09T20:00:00Z,25.1670,-80.8010,1.5,35.03,11111222 
ENP,ioos.station.NOAA.NDBC:GBTF1:1,2019-11-09T21:00:00Z,25.1670,-80.8010,1.5,35.23,11111222 
ENP,ioos.station.NOAA.NDBC:GBTF1:1,2019-11-09T22:00:00Z,25.1670,-80.8010,1.5,35.4,11111222 
ENP,ioos.station.NOAA.NDBC:GBTF1:1,2019-11-09T23:00:00Z,25.1670,-80.8010,1.5,35.45,11111222 
ENP,ioos.station.NOAA.NDBC:GBTF1:1,2019-11-10T00:00:00Z,25.1670,-80.8010,1.5,35.45,11111222 
ENP,ioos.station.NOAA.NDBC:GBTF1:1,2019-11-10T02:00:00Z,25.1670,-80.8010,1.5,34.85,11111222 
ENP,ioos.station.NOAA.NDBC:GBTF1:1,2019-11-10T03:00:00Z,25.1670,-80.8010,1.5,34.75,11111222 
ENP,ioos.station.NOAA.NDBC:GBTF1:1,2019-11-10T05:00:00Z,25.1670,-80.8010,1.5,35.26,11111222 
ENP,ioos.station.NOAA.NDBC:GBTF1:1,2019-11-10T06:00:00Z,25.1670,-80.8010,1.5,35.27,11111222 
ENP,ioos.station.NOAA.NDBC:GBTF1:1,2019-11-10T07:00:00Z,25.1670,-80.8010,1.5,35.33,11111222 
ENP,ioos.station.NOAA.NDBC:GBTF1:1,2019-11-10T08:00:00Z,25.1670,-80.8010,1.5,35.48,11111222 
ENP,ioos.station.NOAA.NDBC:GBTF1:1,2019-11-10T09:00:00Z,25.1670,-80.8010,1.5,35.85,11111222 
ENP,ioos.station.NOAA.NDBC:GBTF1:1,2019-11-10T10:00:00Z,25.1670,-80.8010,1.5,35.99,11111222 
ENP,ioos.station.NOAA.NDBC:GBTF1:1,2019-11-10T11:00:00Z,25.1670,-80.8010,1.5,36.17,11111222 
ENP,ioos.station.NOAA.NDBC:GBTF1:1,2019-11-10T12:00:00Z,25.1670,-80.8010,1.5,36.26,11111222 
ENP,ioos.station.NOAA.NDBC:GBTF1:1,2019-11-10T13:00:00Z,25.1670,-80.8010,1.5,36.28,11111222 
ENP,ioos.station.NOAA.NDBC:GBTF1:1,2019-11-10T14:00:00Z,25.1670,-80.8010,1.5,36.22,11111222 
ENP,ioos.station.NOAA.NDBC:GBTF1:1,2019-11-10T15:00:00Z,25.1670,-80.8010,1.5,35.91,11111222 
ENP,ioos.station.NOAA.NDBC:GBTF1:1,2019-11-10T16:00:00Z,25.1670,-80.8010,1.5,34.1,11111222 
ENP,ioos.station.NOAA.NDBC:GBTF1:1,2019-11-10T17:00:00Z,25.1670,-80.8010,1.5,33.95,11111222 
ENP,ioos.station.NOAA.NDBC:GBTF1:1,2019-11-10T18:00:00Z,25.1670,-80.8010,1.5,33.72,11111222 
ENP,ioos.station.NOAA.NDBC:GBTF1:1,2019-11-10T19:00:00Z,25.1670,-80.8010,1.5,32.92,11111222 
ENP,ioos.station.NOAA.NDBC:GBTF1:1,2019-11-10T20:00:00Z,25.1670,-80.8010,1.5,33.42,11111222 
ENP,ioos.station.NOAA.NDBC:GBTF1:1,2019-11-10T21:00:00Z,25.1670,-80.8010,1.5,33.57,11111222 
ENP,ioos.station.NOAA.NDBC:GBTF1:1,2019-11-10T22:00:00Z,25.1670,-80.8010,1.5,33.44,11111222 
ENP,ioos.station.NOAA.NDBC:GBTF1:1,2019-11-11T05:00:00Z,25.1670,-80.8010,1.5,37.94,11111222 
ENP,ioos.station.NOAA.NDBC:GBTF1:1,2019-11-11T11:00:00Z,25.1670,-80.8010,1.5,38.54,11111222 
ENP,ioos.station.NOAA.NDBC:GBTF1:1,2019-11-11T12:00:00Z,25.1670,-80.8010,1.5,38.65,11111222 
ENP,ioos.station.NOAA.NDBC:GBTF1:1,2019-11-11T15:00:00Z,25.1670,-80.8010,1.5,38.81,11111222 
ENP,ioos.station.NOAA.NDBC:GBTF1:1,2019-11-11T17:00:00Z,25.1670,-80.8010,1.5,37.8,11111222 
ENP,ioos.station.NOAA.NDBC:GBTF1:1,2019-11-11T18:00:00Z,25.1670,-80.8010,1.5,37.44,11111222 
ENP,ioos.station.NOAA.NDBC:GBTF1:1,2019-11-11T19:00:00Z,25.1670,-80.8010,1.5,36.73,11111222 
ENP,ioos.station.NOAA.NDBC:GBTF1:1,2019-11-11T20:00:00Z,25.1670,-80.8010,1.5,36.08,11111222 
ENP,ioos.station.NOAA.NDBC:GBTF1:1,2019-11-11T21:00:00Z,25.1670,-80.8010,1.5,37.12,11111222 
ENP,ioos.station.NOAA.NDBC:GBTF1:1,2019-11-11T22:00:00Z,25.1670,-80.8010,1.5,37.41,11111222 
ENP,ioos.station.NOAA.NDBC:GBTF1:1,2019-11-11T23:00:00Z,25.1670,-80.8010,1.5,38.39,11111222 
ENP,ioos.station.NOAA.NDBC:GBTF1:1,2019-11-12T00:00:00Z,25.1670,-80.8010,1.5,39.07,11111222 
ENP,ioos.station.NOAA.NDBC:GBTF1:1,2019-11-12T01:00:00Z,25.1670,-80.8010,1.5,39.47,11111222 
ENP,ioos.station.NOAA.NDBC:GBTF1:1,2019-11-12T02:00:00Z,25.1670,-80.8010,1.5,39.6,11111222 
ENP,ioos.station.NOAA.NDBC:GBTF1:1,2019-11-12T03:00:00Z,25.1670,-80.8010,1.5,39.72,11111222 
ENP,ioos.station.NOAA.NDBC:GBTF1:1,2019-11-12T05:00:00Z,25.1670,-80.8010,1.5,39.61,11111222 
ENP,ioos.station.NOAA.NDBC:GBTF1:1,2019-11-12T06:00:00Z,25.1670,-80.8010,1.5,39.42,11111222 
ENP,ioos.station.NOAA.NDBC:GBTF1:1,2019-11-12T07:00:00Z,25.1670,-80.8010,1.5,39.23,11111222 
ENP,ioos.station.NOAA.NDBC:GBTF1:1,2019-11-12T08:00:00Z,25.1670,-80.8010,1.5,39.0,11111222 
ENP,ioos.station.NOAA.NDBC:GBTF1:1,2019-11-12T09:00:00Z,25.1670,-80.8010,1.5,38.96,11111222 
ENP,ioos.station.NOAA.NDBC:GBTF1:1,2019-11-12T10:00:00Z,25.1670,-80.8010,1.5,38.96,11111222 
ENP,ioos.station.NOAA.NDBC:GBTF1:1,2019-11-12T11:00:00Z,25.1670,-80.8010,1.5,38.99,11111222 
ENP,ioos.station.NOAA.NDBC:GBTF1:1,2019-11-12T12:00:00Z,25.1670,-80.8010,1.5,39.06,11111222 
ENP,ioos.station.NOAA.NDBC:GBTF1:1,2019-11-12T14:00:00Z,25.1670,-80.8010,1.5,39.17,11111222 
ENP,ioos.station.NOAA.NDBC:GBTF1:1,2019-11-12T15:00:00Z,25.1670,-80.8010,1.5,39.15,11111222 
ENP,ioos.station.NOAA.NDBC:GBTF1:1,2019-11-12T16:00:00Z,25.1670,-80.8010,1.5,39.09,11111222 
ENP,ioos.station.NOAA.NDBC:GBTF1:1,2019-11-12T17:00:00Z,25.1670,-80.8010,1.5,39.05,11111222 
ENP,ioos.station.NOAA.NDBC:GBTF1:1,2019-11-12T18:00:00Z,25.1670,-80.8010,1.5,38.99,11111222 
ENP,ioos.station.NOAA.NDBC:GBTF1:1,2019-11-12T19:00:00Z,25.1670,-80.8010,1.5,38.96,11111222 
ENP,ioos.station.NOAA.NDBC:GBTF1:1,2019-11-12T20:00:00Z,25.1670,-80.8010,1.5,38.94,11111222 
ENP,ioos.station.NOAA.NDBC:GBTF1:1,2019-11-12T21:00:00Z,25.1670,-80.8010,1.5,38.72,11111222 
ENP,ioos.station.NOAA.NDBC:GBTF1:1,2019-11-12T22:00:00Z,25.1670,-80.8010,1.5,38.45,11111222 
ENP,ioos.station.NOAA.NDBC:GBTF1:1,2019-11-12T23:00:00Z,25.1670,-80.8010,1.5,38.42,11111222 
ENP,ioos.station.NOAA.NDBC:GBTF1:1,2019-11-13T00:00:00Z,25.1670,-80.8010,1.5,38.42,11111222 
ENP,ioos.station.NOAA.NDBC:GBTF1:1,2019-11-13T01:00:00Z,25.1670,-80.8010,1.5,38.44,11111222 
ENP,ioos.station.NOAA.NDBC:GBTF1:1,2019-11-13T02:00:00Z,25.1670,-80.8010,1.5,38.42,11111222 
ENP,ioos.station.NOAA.NDBC:GBTF1:1,2019-11-13T03:00:00Z,25.1670,-80.8010,1.5,38.42,11111222 
ENP,ioos.station.NOAA.NDBC:GBTF1:1,2019-11-13T05:00:00Z,25.1670,-80.8010,1.5,38.45,11111222 
ENP,ioos.station.NOAA.NDBC:GBTF1:1,2019-11-13T06:00:00Z,25.1670,-80.8010,1.5,38.48,11111222 
ENP,ioos.station.NOAA.NDBC:GBTF1:1,2019-11-13T07:00:00Z,25.1670,-80.8010,1.5,38.6,11111222 
ENP,ioos.station.NOAA.NDBC:GBTF1:1,2019-11-13T08:00:00Z,25.1670,-80.8010,1.5,38.66,11111222 
ENP,ioos.station.NOAA.NDBC:GBTF1:1,2019-11-13T09:00:00Z,25.1670,-80.8010,1.5,38.54,11111222 
ENP,ioos.station.NOAA.NDBC:GBTF1:1,2019-11-13T10:00:00Z,25.1670,-80.8010,1.5,38.45,11111222 
ENP,ioos.station.NOAA.NDBC:GBTF1:1,2019-11-13T11:00:00Z,25.1670,-80.8010,1.5,38.53,11111222 
ENP,ioos.station.NOAA.NDBC:GBTF1:1,2019-11-13T12:00:00Z,25.1670,-80.8010,1.5,38.5,11111222 
ENP,ioos.station.NOAA.NDBC:GBTF1:1,2019-11-13T13:00:00Z,25.1670,-80.8010,1.5,38.38,11111222 
ENP,ioos.station.NOAA.NDBC:GBTF1:1,2019-11-13T14:00:00Z,25.1670,-80.8010,1.5,38.38,11111222 
ENP,ioos.station.NOAA.NDBC:GBTF1:1,2019-11-13T15:00:00Z,25.1670,-80.8010,1.5,38.49,11111222 
ENP,ioos.station.NOAA.NDBC:GBTF1:1,2019-11-13T17:00:00Z,25.1670,-80.8010,1.5,37.91,11111222 
ENP,ioos.station.NOAA.NDBC:GBTF1:1,2019-11-13T18:00:00Z,25.1670,-80.8010,1.5,37.85,11111222 
ENP,ioos.station.NOAA.NDBC:GBTF1:1,2019-11-13T19:00:00Z,25.1670,-80.8010,1.5,37.89,11111222 
ENP,ioos.station.NOAA.NDBC:GBTF1:1,2019-11-13T20:00:00Z,25.1670,-80.8010,1.5,38.02,11111222 